Destin, FL

10:16 AM CST on January 17, 2017 (GMT -0600)
Destin-Fort Walton Beach

Weather History for KDTS - July, 2013

Change the Weather History Date:

Monday, July 22, 2013

  Actual Average Record
Temperature  
Mean Temperature 78 °F -  
Max Temperature 84 °F 87 °F 96 °F (1999)
Min Temperature 73 °F 74 °F 73 °F (2000)
Cooling Degree Days 14    
Growing Degree Days 28 (Base 50)    
Moisture  
Dew Point 73 °F    
Average Humidity 84    
Maximum Humidity 94    
Minimum Humidity 74    
Precipitation  
Precipitation 2.40 in - - ()
Sea Level Pressure  
Sea Level Pressure 30.06 in    
Wind  
Wind Speed 5 mph (WSW)    
Max Wind Speed 14 mph    
Max Gust Speed 25 mph    
Visibility 7 miles    
Events Fog , Rain , Thunderstorm    
Averages and records for this station are not official NWS values.
T = Trace of Precipitation, MM = Missing Value Source: NWS Daily Summary

Daily Weather History Graph

Daily Weather History Graph

Search for Another Location

Airport or City:

Trip Planner

Search our weather history database for the weather conditions in past years. The results will help you decide how hot, cold, wet, or windy it might be!

Date:

Astronomy

Jul. 22, 2013 Rise Set
Actual Time 5:58 AM CDT 7:46 PM CDT
Civil Twilight 5:31 AM CDT 8:12 PM CDT
Nautical Twilight 4:59 AM CDT 8:44 PM CDT
Astronomical Twilight 4:25 AM CDT 9:18 PM CDT
Moon 7:38 PM CDT (7/22) 5:49 AM CDT (7/22)
Length of Visible Light 14h 41m
Length of Day
13h 47m
Full, 100% of the Moon is Illuminated
Jul 22
Full
Jul 22
Full
Jul 29
Last Quarter
Aug 6
New
Aug 14
First Quarter

Hourly Weather History & Observations

Time (CDT) Temp. Heat Index Dew Point Humidity Pressure Visibility Wind Dir Wind Speed Gust Speed Precip Events Conditions
12:53 AM 82.0 °F 87.4 °F 73.0 °F 74% 30.06 in 10.0 mi SW 4.6 mph - N/A   Clear
1:34 AM 82.4 °F 88.2 °F 73.4 °F 74% 30.04 in 10.0 mi SSW 5.8 mph - N/A   Mostly Cloudy
1:53 AM 82.0 °F 87.9 °F 73.9 °F 76% 30.04 in 10.0 mi SSW 5.8 mph - N/A   Mostly Cloudy
2:53 AM 82.0 °F 88.6 °F 75.0 °F 79% 30.03 in 10.0 mi Variable 4.6 mph - N/A   Mostly Cloudy
3:00 AM 82.4 °F 89.5 °F 75.2 °F 79% 30.02 in 10.0 mi SSW 5.8 mph - N/A   Partly Cloudy
3:28 AM 82.4 °F 89.5 °F 75.2 °F 79% 30.03 in 10.0 mi Variable 4.6 mph - N/A   Mostly Cloudy
3:53 AM 82.0 °F 88.6 °F 75.0 °F 79% 30.02 in 10.0 mi SW 5.8 mph - N/A   Scattered Clouds
4:42 AM 82.4 °F 89.5 °F 75.2 °F 79% 30.03 in 10.0 mi SW 6.9 mph - N/A   Mostly Cloudy
4:53 AM 82.0 °F 89.4 °F 75.9 °F 82% 30.03 in 10.0 mi Variable 5.8 mph - N/A   Mostly Cloudy
5:00 AM 82.4 °F 89.5 °F 75.2 °F 79% 30.03 in 10.0 mi Variable 4.6 mph - N/A   Mostly Cloudy
5:07 AM 82.4 °F 89.5 °F 75.2 °F 79% 30.03 in 10.0 mi WSW 4.6 mph - N/A   Mostly Cloudy
5:46 AM 80.6 °F 85.4 °F 73.4 °F 79% 30.04 in 9.0 mi WSW 5.8 mph - 0.00 in Rain Light Rain
5:53 AM 80.1 °F 84.5 °F 73.9 °F 81% 30.04 in 10.0 mi Variable 4.6 mph - 0.00 in Rain Light Rain
6:53 AM 82.0 °F 88.6 °F 75.0 °F 79% 30.05 in 10.0 mi Variable 3.5 mph - 0.00 in Rain Light Rain
7:01 AM 80.6 °F 85.4 °F 73.4 °F 79% 30.05 in 10.0 mi WNW 3.5 mph - 0.00 in   Mostly Cloudy
7:10 AM 80.6 °F 85.4 °F 73.4 °F 79% 30.05 in 10.0 mi NW 3.5 mph - 0.00 in   Scattered Clouds
7:53 AM 84.0 °F 93.7 °F 77.0 °F 79% 30.06 in 10.0 mi Variable 6.9 mph - 0.00 in   Scattered Clouds
8:14 AM 82.4 °F 89.5 °F 75.2 °F 79% 30.07 in 1.5 mi Variable 5.8 mph - 0.07 in Rain Heavy Rain
8:21 AM 80.6 °F 85.4 °F 73.4 °F 79% 30.07 in 2.0 mi WSW 4.6 mph - 0.07 in Rain Light Rain
8:29 AM 80.6 °F 85.4 °F 73.4 °F 79% 30.07 in 10.0 mi WSW 6.9 mph - 0.07 in   Scattered Clouds
8:40 AM 75.2 °F - 69.8 °F 83% 30.09 in 0.8 mi West 9.2 mph 21.9 mph 0.28 in Rain Heavy Rain
8:53 AM 75.9 °F - 72.0 °F 87% 30.08 in 4.0 mi WSW 5.8 mph - 0.38 in Rain Light Rain
9:14 AM 75.2 °F - 71.6 °F 89% 30.08 in 10.0 mi Calm Calm - 0.00 in Rain , Thunderstorm Light Rain
9:31 AM 77.0 °F - 71.6 °F 83% 30.08 in 10.0 mi Calm Calm - 0.00 in Rain Light Rain
9:53 AM 79.0 °F - 72.0 °F 79% 30.08 in 10.0 mi SW 3.5 mph - 0.00 in   Clear
10:53 AM 84.9 °F 94.1 °F 75.9 °F 74% 30.08 in 10.0 mi SW 8.1 mph - N/A   Scattered Clouds
11:43 AM 80.6 °F 85.4 °F 73.4 °F 79% 30.07 in 10.0 mi SSW 9.2 mph 18.4 mph 0.00 in   Overcast
11:53 AM 82.0 °F 87.4 °F 73.0 °F 74% 30.06 in 10.0 mi SW 9.2 mph 18.4 mph 0.00 in Rain Light Rain
12:09 PM 80.6 °F 85.4 °F 73.4 °F 79% 30.07 in 1.5 mi WSW 12.7 mph 20.7 mph 0.11 in Rain Heavy Rain
12:21 PM 77.0 °F - 71.6 °F 83% 30.09 in 0.8 mi Variable 6.9 mph 18.4 mph 0.33 in Rain Heavy Rain
12:29 PM 75.2 °F - 71.6 °F 89% 30.11 in 0.5 mi WSW 13.8 mph 23.0 mph 0.56 in Fog , Rain Heavy Rain
12:38 PM 73.4 °F - 71.6 °F 94% 30.11 in 0.5 mi West 8.1 mph 18.4 mph 0.76 in Fog , Rain , Thunderstorm Heavy Rain
12:49 PM 73.4 °F - 71.6 °F 94% 30.09 in 1.0 mi Calm Calm - 0.87 in Rain , Thunderstorm Heavy Rain
12:53 PM 73.9 °F - 72.0 °F 93% 30.09 in 2.0 mi WSW 4.6 mph - 0.88 in Rain Rain
1:02 PM 75.2 °F - 71.6 °F 89% 30.10 in 6.0 mi West 5.8 mph - 0.00 in Rain Light Rain
1:15 PM 75.2 °F - 71.6 °F 89% 30.09 in 5.0 mi Variable 4.6 mph - 0.02 in Rain , Thunderstorm Rain
1:26 PM 75.2 °F - 71.6 °F 89% 30.09 in 1.8 mi Variable 4.6 mph - 0.08 in Rain , Thunderstorm Heavy Rain
1:31 PM 75.2 °F - 71.6 °F 89% 30.08 in 1.0 mi West 9.2 mph - 0.13 in Rain , Thunderstorm Heavy Rain
1:42 PM 75.2 °F - 71.6 °F 89% 30.08 in 3.0 mi Variable 5.8 mph - 0.15 in Rain , Thunderstorm Rain
1:53 PM 75.9 °F - 73.0 °F 91% 30.07 in 4.0 mi Variable 6.9 mph - 0.17 in Rain Rain
2:24 PM 77.0 °F - 73.4 °F 89% 30.06 in 5.0 mi Variable 6.9 mph - 0.03 in Rain , Thunderstorm Light Rain
2:38 PM 77.0 °F - 73.4 °F 89% 30.06 in 7.0 mi WSW 5.8 mph - 0.04 in Rain Light Rain
2:53 PM 78.1 °F - 72.0 °F 81% 30.07 in 10.0 mi SW 8.1 mph - 0.04 in Rain Light Rain
3:53 PM 79.0 °F - 73.9 °F 84% 30.06 in 10.0 mi SSW 8.1 mph - 0.00 in   Scattered Clouds
4:53 PM 81.0 °F 86.7 °F 75.0 °F 82% 30.04 in 10.0 mi Variable 3.5 mph - N/A   Scattered Clouds
5:53 PM 82.0 °F 89.4 °F 75.9 °F 82% 30.03 in 10.0 mi Variable 3.5 mph - 0.00 in Rain , Thunderstorm Light Rain
6:17 PM 82.4 °F 90.9 °F 77.0 °F 84% 30.03 in 10.0 mi SW 6.9 mph - 0.00 in Rain Light Rain
6:37 PM 82.4 °F 90.9 °F 77.0 °F 84% 30.04 in 7.0 mi WSW 6.9 mph - 0.01 in Rain , Thunderstorm Light Rain
6:42 PM 80.6 °F 86.2 °F 75.2 °F 84% 30.04 in 2.0 mi WSW 5.8 mph - 0.05 in Rain , Thunderstorm Heavy Thunderstorms and Rain
6:49 PM 80.6 °F 86.2 °F 75.2 °F 84% 30.03 in 1.5 mi Variable 3.5 mph - 0.09 in Rain , Thunderstorm Heavy Thunderstorms and Rain
6:53 PM 79.0 °F - 75.0 °F 88% 30.06 in 2.0 mi West 11.5 mph 25.3 mph 0.13 in Rain , Thunderstorm Heavy Thunderstorms and Rain
7:00 PM 75.2 °F - 71.6 °F 89% 30.05 in 1.0 mi WSW 11.5 mph 25.3 mph 0.21 in Rain , Thunderstorm Heavy Thunderstorms and Rain
7:18 PM 73.4 °F - 71.6 °F 94% 30.06 in 2.5 mi Variable 4.6 mph - 0.55 in Rain , Thunderstorm Heavy Thunderstorms and Rain
7:26 PM 73.4 °F - 71.6 °F 94% 30.06 in 4.0 mi Variable 5.8 mph - 0.57 in Rain , Thunderstorm Thunderstorms and Rain
7:53 PM 73.9 °F - 70.0 °F 87% 30.06 in 10.0 mi WNW 4.6 mph - 0.58 in Rain Light Rain
8:27 PM 73.4 °F - 71.6 °F 94% 30.07 in 5.0 mi Calm Calm - 0.04 in Rain , Thunderstorm Thunderstorms and Rain
8:49 PM 73.4 °F - 71.6 °F 94% 30.08 in 10.0 mi Calm Calm - 0.06 in Rain Light Rain
8:53 PM 73.9 °F - 71.1 °F 91% 30.09 in 10.0 mi Calm Calm - 0.06 in Rain Light Rain
9:14 PM 75.2 °F - 71.6 °F 89% 30.08 in 9.0 mi Calm Calm - 0.01 in Rain , Thunderstorm Light Rain
9:29 PM 73.4 °F - 71.6 °F 94% 30.07 in 6.0 mi West 3.5 mph - 0.04 in Rain Rain
9:53 PM 73.9 °F - 71.1 °F 91% 30.06 in 5.0 mi WSW 3.5 mph - 0.09 in Rain Rain
10:53 PM 75.9 °F - 72.0 °F 87% 30.04 in 8.0 mi Variable 4.6 mph - 0.07 in Rain Light Rain
11:53 PM 77.0 °F - 73.0 °F 88% 30.03 in 10.0 mi WSW 5.8 mph - 0.00 in Rain Light Rain